EHI
0 0 0 0 0 0 0 0 0 0 0 0 0 0 0 0 0 0 0 0 0 0 0 0 0 0 0 0 0 0 0 0 0 0 0 0 0 0 0 0 0 0 0
0 0 0 0 0 0 0 0 0 0 0 0 0 0 0 0 0 0 0 0 0 0 0 0 0 0 0 0 0 0 0 0 0 0 0 0 0 0 0 0 0 0 0
0 0 0 0 0 0 0 0 0 0 0 0 0 0 0 0 0 0 0 0 0 0 0 0 0 0 0 0 0 0 0 0 0 0 0 0 0 0 0 0 0 0 0
0 0 0 0 0 0 0 0 0 0 0 0 0 0 0 0 0 0 0 0 0 0 0 0 0 0 0 0 0 0 0 0 0 0 0 0 0 0 0 0 0 0 0
0 0 0 0 0 0 0 0 0 0 0 0 0 0 0 0 0 0 0 0 0 0 0 0 0 0 0 0 0 0 0 0 0 0 0 0 0 0 0 0 0 0 0
0 0 0 0 0 0 0 0 0 0 0 0 0 0 0 0 0 0 0 0 0 0 0 0 0 0 0 0 0 0 0 0 0 0 0 0 0 0 0 0 0 0 0
0 0 0 0 0 0 0 0 0 0 0 0 0 0 0 0 0 0 0 0 0 0 0 0 0 0 0 0 0 0 0 0 0 0 0 0 0 0 0 0 0 0 0
0 0 0 0 0 0 0 0 0 0 0 0 0 0 0 0 0 0 0 0 0 0 0 0 0 0 0 0 0 0 0 0 0 0 0 0 0 0 0 0 0 0 0
0 0 0 0 0 0 0 0 0 0 0 0 0 0 0 0 0 0 0 0 0 0 0 0 0 0 0 0 0 0 0 0 0 0 0 0 0 0 0 0 0 0 0
0 0 0 0 0 0 0 0 0 0 0 0 0 0 0 0 0 0 0 0 0 0 0 0 0 0 0 0 0 0 0 0 0 0 0 0 0 0 0 0 0 0 0
0 0 0 0 0 0 0 0 0 0 0 0 0 0 0 0 0 0 0 0 0 0 0 0 0 0 0 0 0 0 0 0 0 0 0 0 0 0 0 0 0 0 0
0 0 0 0 0 0 0 0 0 0 0 0 0 0 0 0 0 0 0 0 0 0 0 0 0 0 0 0 0 0 0 0 0 0 0 0 0 0 0 0 0 0 0
0 0 0 0 0 0 0 0 0 0 0 0 0 0 0 0 0 0 0 0 0 0 0 0 0 0 0 0 0 0 0 0 0 0 0 0 0 0 0 0 0 0 0
0 0 0 0 0 0 0 0 0 0 0 0 0 0 0 0 0 0 0 0 0 0 0 0 0 0 0 0 0 0 0 0 0 0 0 0 0 0 0 0 0 0 0
0 0 0 0 0 0 0 0 0 0 0 0 0 0 0 0 0 0 0 0 0 0 0 0 0 0 0 0 0 0 0 0 0 0 0 0 0 0 0 0 0 0 0
0 0 0 0 0 0 0 0 0 0 0 0 0 0 0 0 0 0 0 0 0 0 0 0 0 0 0 0 0 0 0 0 0 0 0 0 0 0 0 0 0 0 0
0 0 0 0 0 0 0 0 0 0 0 0 0 0 0 0 0 0 0 0 0 0 0 0 0 0 0 0 0 0 0 0 0 0 0 0 0 0 0 0 0 0 0
0 0 0 0 0 0 0 0 0 0 0 0 0 0 0 0 0 0 0 0 0 0 0 0 0 0 0 0 0 0 0 0 0 0 0 0 0 0 0 0 0 0 0
0 0 0 0 0 0 0 0 0 0 0 0 0 0 0 0 0 0 0 0 0 0 0 0 0 0 0 0 0 0 0 0 0 0 0 0 0 0 0 0 0 0 0
0 0 0 0 0 0 0 0 0 0 0 0 0 0 0 0 0 0 0 0 0 0 0 0 0 0 0 0 0 0 0 0 0 0 0 0 0 0 0 0 0 0 0
0 0 0 0 0 0 0 0 0 0 0 0 0 0 0 0 0 0 0 0 0 0 0 0 0 0 0 0 0 0 0 0 0 0 0 0 0 0 0 0 0 0 0
0 0 0 0 0 0 0 0 0 0 0 0 0 0 0 0 0 0 0 0 0 0 0 0 0 0 0 0 0 0 0 0 0 0 0 0 0 0 0 0 0 0 0
0 0 0 0 0 0 0 0 0 0 0 0 0 0 0 0 0 0 0 0 0 0 0 0 0 0 0 0 0 0 0 0 0 0 0 0 0 0 0 0 0 0 0
0 0 0 0 0 0 0 0 0 0 0 0 0 0 0 0 0 0 0 0 0 0 0 0 0 0 0 0 0 0 0 0 0 0 0 0 0 0 0 0 0 0 0
0 0 0 0 0 0 0 0 0 0 0 0 0 0 0 0 0 0 0 0 0 0 0 0 0 0 0 0 0 0 0 0 0 0 0 0 0 0 0 0 0 0 0
0 0 0 0 0 0 0 0 0 0 0 0 0 0 0 0 0 0 0 0 0 0 0 0 0 0 0 0 0 0 0 0 0 0 0 0 0 0 0 0 0 0 0
Wind_Speed
1 2 2 2 1 1 1 2 2 2 2 2 2 3 3 3 3 2 3 3 3 4 4 4 4 4 4 4 3 3 4 4 8 8 5 5 6 7 7 7 7 8 8
1 1 1 2 2 2 2 2 2 2 2 2 3 3 3 3 3 3 3 3 3 4 4 4 5 5 5 4 4 4 4 5 6 10 8 6 7 7 7 8 8 8 8
1 1 1 2 2 2 2 2 2 2 2 3 3 3 3 3 3 3 3 3 3 4 4 5 5 5 5 5 5 5 5 6 5 7 9 7 6 6 7 8 9 7 9
0 0 1 1 1 2 2 2 2 2 2 2 2 2 3 3 3 3 3 3 3 4 4 4 5 5 5 5 5 5 6 6 6 7 8 7 7 6 6 7 8 6 8
1 1 1 1 1 1 2 2 2 2 2 2 2 3 3 3 3 3 3 3 4 4 4 4 5 6 7 7 6 6 6 6 6 6 7 8 7 7 7 7 9 9 8
1 1 1 1 1 1 1 2 2 2 2 2 2 3 3 3 5 7 5 4 4 5 5 5 5 5 7 10 11 11 10 8 8 7 7 8 9 8 8 8 9 9 9
2 1 1 0 1 1 2 2 2 2 2 2 3 3 3 4 7 7 7 5 5 5 5 5 5 5 6 6 9 11 10 11 12 9 9 9 10 9 9 10 10 10 10
2 1 1 1 1 1 1 2 2 2 2 3 3 3 3 4 7 7 7 5 5 5 5 5 6 6 7 8 8 8 7 7 9 7 7 8 8 8 8 10 10 11 10
2 2 2 1 2 2 2 2 2 2 3 3 3 3 4 5 7 8 7 4 4 5 5 5 6 6 10 12 9 9 9 8 9 11 12 12 14 15 12 8 7 8 9
3 3 2 2 2 3 3 3 2 3 3 3 4 3 4 4 7 8 8 4 5 5 5 5 7 9 11 12 8 8 9 9 8 8 9 10 9 10 12 7 6 7 8
3 2 2 2 3 3 2 2 2 3 3 3 4 4 4 4 7 8 8 4 5 5 5 5 5 11 13 13 11 7 10 10 7 7 7 7 6 5 5 5 5 6 7
2 3 3 3 2 2 2 2 2 2 3 4 4 4 3 3 5 7 9 8 7 6 6 5 6 12 13 13 10 11 13 11 5 5 5 6 6 5 5 6 6 6 7
3 3 3 3 2 2 2 3 2 2 3 3 3 4 4 3 4 7 8 9 10 6 5 9 11 12 12 9 10 12 9 5 4 5 5 6 6 6 6 6 6 6 7
3 3 3 3 3 2 2 3 3 3 4 4 4 4 4 4 4 3 4 5 6 6 5 6 9 10 9 8 7 6 4 4 4 5 5 5 5 5 5 5 6 6 6
4 3 3 3 3 3 3 3 4 4 4 4 4 4 4 5 6 8 6 4 4 5 5 3 3 4 4 4 4 4 4 4 4 4 5 6 6 6 6 5 5 5 5
4 4 3 3 3 3 3 3 6 6 7 8 7 6 5 7 9 9 10 10 10 9 5 3 4 4 4 5 5 5 4 4 4 5 5 5 6 6 6 5 5 5 6
5 4 3 3 3 3 3 3 4 5 6 7 7 8 8 8 9 9 9 10 9 7 3 3 4 4 4 4 4 4 5 5 4 4 5 5 5 5 5 6 5 5 6
4 4 4 4 3 3 4 3 3 3 4 4 5 8 8 8 8 9 9 7 4 3 2 3 4 4 4 4 4 4 5 5 4 4 5 5 5 5 5 5 5 6 7
4 4 3 3 3 3 3 3 3 3 4 3 3 5 5 6 7 7 6 2 3 4 3 4 4 4 5 4 4 4 5 5 5 5 4 5 4 4 5 5 6 7 6
4 4 4 3 3 3 3 3 3 3 4 4 4 4 3 2 3 3 3 3 3 4 4 4 4 5 5 4 4 4 4 4 5 4 4 4 4 4 5 6 6 6 6
3 3 4 3 3 4 3 4 4 4 4 4 4 4 5 3 3 4 4 4 4 5 4 5 5 4 4 4 4 4 5 5 4 4 4 4 4 4 5 5 5 5 5
3 3 3 4 3 3 3 3 3 4 4 4 4 4 7 3 3 4 4 4 4 4 4 4 4 4 4 4 4 5 5 5 5 4 4 4 4 5 5 5 5 5 5
3 4 3 3 3 3 3 3 3 4 4 4 4 3 3 3 4 4 4 4 4 4 4 4 5 5 4 4 4 4 5 6 5 4 5 5 5 5 4 5 5 6 6
4 5 4 4 3 3 4 4 3 4 4 4 4 4 4 4 4 5 5 4 4 4 4 4 5 6 7 5 4 4 5 5 5 4 6 5 5 5 4 5 5 6 6
4 4 4 4 4 4 4 4 4 4 4 4 4 4 4 4 4 5 4 4 5 5 5 5 4 5 7 7 7 6 7 8 7 5 4 4 5 5 5 5 5 5 5
4 4 4 4 4 4 4 4 4 4 4 4 4 4 4 4 5 5 4 4 5 5 5 5 6 7 7 7 8 8 9 9 8 7 5 4 4 5 5 5 5 5 5
Wind_Direction
9 10 4 353 6 25 18 10 8 6 355 350 343 340 337 336 339 340 334 330 328 325 324 326 325 323 318 318 316 313 306 298 290 297 305 315 316 314 313 312 309 304 304
357 11 4 359 7 15 7 4 4 356 352 346 343 339 336 333 331 327 322 327 330 331 327 325 321 321 319 317 317 314 308 302 292 296 303 311 310 312 312 313 313 311 307
1 9 358 353 356 353 350 352 357 355 349 346 341 333 327 322 318 317 319 326 326 322 320 319 318 319 318 319 319 314 310 310 303 296 299 306 306 309 309 308 306 304 307
315 327 320 320 335 346 350 351 350 345 335 331 328 322 322 320 318 321 328 328 323 319 318 317 317 315 312 313 312 309 307 305 302 297 297 301 303 304 304 308 309 306 305
271 281 281 306 356 358 351 345 344 342 332 325 325 326 326 320 319 324 323 319 317 314 315 314 313 313 313 313 310 310 309 303 301 299 297 300 303 310 310 309 307 307 299
227 245 274 320 353 337 332 336 335 328 326 329 326 326 324 321 326 325 322 316 311 307 307 305 302 301 312 314 311 310 307 303 301 297 294 296 301 306 309 307 307 308 303
224 235 250 288 308 308 318 330 322 318 322 322 318 320 314 316 321 321 323 317 310 303 302 303 306 311 309 305 305 305 305 303 299 294 293 294 298 304 305 303 302 301 298
222 237 246 261 281 305 310 303 304 308 309 306 309 311 309 312 316 318 322 320 309 303 300 299 301 304 307 309 305 302 298 299 299 297 291 293 298 302 299 299 302 301 295
221 230 230 228 253 271 274 282 294 304 304 304 302 305 304 307 311 314 318 314 307 307 306 305 303 300 305 310 308 306 306 305 308 305 303 304 306 309 310 308 306 304 300
227 229 224 219 233 248 260 275 292 291 289 301 302 303 298 300 304 309 312 307 304 306 306 305 302 303 306 310 308 304 303 307 311 313 310 309 308 307 312 307 301 297 298
224 219 218 223 232 243 257 272 286 287 295 296 297 301 298 295 299 304 306 307 301 301 301 303 304 308 310 311 312 306 303 308 308 308 306 306 306 305 306 305 302 294 292
206 212 222 226 230 230 236 259 264 265 275 282 289 295 293 295 296 300 301 300 300 296 295 297 299 306 310 312 312 310 312 313 307 304 302 304 306 307 309 309 303 296 283
207 219 225 225 228 226 225 239 253 253 257 267 273 282 290 292 295 298 299 300 302 302 296 297 304 309 314 315 317 317 317 310 302 298 297 299 301 301 304 304 302 297 291
214 225 218 215 229 233 231 229 233 239 249 260 268 275 285 288 289 294 298 303 305 306 304 303 306 309 312 316 317 317 317 311 303 296 297 299 302 302 302 304 306 311 307
218 222 218 217 221 232 237 235 239 240 239 253 257 262 273 280 282 296 304 303 303 298 314 311 308 311 312 311 313 314 313 314 309 306 304 305 305 304 303 307 306 308 302
216 219 216 217 220 225 242 272 261 259 269 270 270 272 275 279 294 297 302 306 309 312 319 305 301 302 302 305 308 309 308 306 306 307 304 302 302 303 305 308 304 302 301
215 219 217 217 220 223 226 238 272 284 275 277 280 283 284 293 298 301 304 309 310 317 308 291 289 291 293 295 295 296 297 299 300 298 298 299 301 302 304 305 307 305 302
217 216 212 216 220 224 228 235 240 252 278 287 288 289 295 300 302 305 309 318 315 309 280 279 281 284 286 287 288 291 294 297 294 292 292 293 296 299 300 299 300 301 303
215 216 213 215 217 222 227 231 237 245 256 273 294 296 296 300 304 304 312 298 283 282 277 276 277 279 282 281 282 285 288 290 290 289 288 289 291 294 293 293 295 297 299
216 217 209 208 212 216 220 226 235 242 251 256 262 275 296 305 297 296 291 277 274 276 275 273 274 273 276 276 277 279 284 286 288 285 285 286 287 287 289 290 291 296 296
210 209 202 206 212 215 219 226 233 239 247 255 262 265 272 274 271 274 276 272 269 270 272 273 274 277 275 273 274 276 277 279 279 282 285 284 285 285 286 286 289 292 294
200 203 207 213 216 219 225 228 230 237 243 254 271 274 270 272 265 267 268 270 268 267 266 268 271 270 269 269 270 273 273 274 275 278 284 285 284 282 284 287 293 296 296
196 201 209 215 216 219 225 227 231 236 244 250 259 268 266 261 263 266 270 274 277 276 274 269 272 276 275 271 266 263 266 267 267 268 275 281 283 282 282 283 287 292 295
200 203 207 211 213 217 224 231 235 239 245 250 253 257 261 264 267 270 273 276 277 276 274 272 270 273 276 278 274 267 263 266 264 259 257 263 273 279 283 284 282 284 289
202 206 209 211 213 217 224 230 234 238 244 248 252 258 262 266 270 273 275 275 276 276 277 277 274 274 275 275 277 275 274 274 272 263 255 255 263 270 272 277 280 287 288
205 210 214 215 217 219 223 230 234 239 245 249 253 257 261 264 269 272 275 276 279 281 281 280 278 278 280 276 274 278 278 277 273 264 251 248 256 265 269 272 277 281 285